User: anonymous   Login
Location: Maiden_LMO
(35.5760°N, 81.2120°W)
Time: 05:02:22
(UTC-04:00)
Language:

ADEOS II - Orbit

View from above orbital plane
View from above orbital plane
View from above satellite
View from above satellite

Ground track
Ground track

The orbit data is extracted from the following two-line orbital elements,

1 27597U 02056A   16119.94135432 +.00000095 +00000-0 +55667-4 0  9999
2 27597 098.3186 102.4235 0002245 096.1557 263.9881 14.27204815696338
Epoch (UTC): 28 April 2016 22:35:33
Eccentricity: 0.0002245
inclination: 98.3186°
perigee height: 799 km
apogee height: 803 km
right ascension of ascending node: 102.4235°
argument of perigee: 96.1557°
revolutions per day: 14.27204815
mean anomaly at epoch: 263.9881°
orbit number at epoch: 69633

The dashed part of the orbit path shows where the satellite is in the earth's shadow,  

DLR